Location: Unspecified
(0.0000°N, 0.0000°E)
Time: 12:36:56
(UTC+00:00)

deb West Ford - Visible Passes

Search period start: 20 July 2025 00:00
Search period end: 30 July 2025 00:00
Orbit: 2980 x 4274 km, 87.6° (Epoch: 19 July)

Date Brightness Start Highest point End Pass type
(mag) Time Alt. Az. Time Alt. Az. Time Alt. Az.
20 Jul ? 02:30:43 19° NW 02:30:43 19° NW 02:34:34 10° NW visible
21 Jul ? 00:39:20 35° N 00:39:20 35° N 00:46:09 10° N visible
21 Jul ? 22:47:57 12° NE 22:47:57 12° NE 22:49:05 10° NE visible
22 Jul ? 01:34:01 29° NNW 01:34:01 29° NNW 01:39:58 10° NNW visible
22 Jul ? 23:42:38 25° NNE 23:42:38 25° NNE 23:48:03 10° NNE visible
23 Jul ? 02:28:42 15° NW 02:28:42 15° NW 02:31:09 10° NW visible
24 Jul ? 00:37:18 33° N 00:37:18 33° N 00:43:37 10° N visible
24 Jul ? 22:45:54 13° NE 22:45:54 13° NE 22:47:46 10° NE visible
25 Jul ? 01:31:58 25° NNW 01:31:58 25° NNW 01:37:04 10° NNW visible
25 Jul ? 23:40:33 26° NNE 23:40:33 26° NNE 23:45:53 10° NNE visible
26 Jul ? 02:26:37 12° NW 02:26:37 12° NW 02:27:33 10° NW visible
27 Jul ? 00:35:13 30° N 00:35:13 30° N 00:41:04 10° N visible
27 Jul ? 22:43:48 15° NE 22:43:48 15° NE 22:46:14 10° NE visible
28 Jul ? 01:29:51 22° NNW 01:29:51 22° NNW 01:34:08 10° NNW visible
28 Jul ? 23:38:26 26° NNE 23:38:26 26° NNE 23:43:39 10° NNE visible
